This is the latest recevied weather packets stored in our database for station/object OH2MUI. If no packets are shown the sender has not sent any weather packets the latest 10 day(s).
| Time | Temp. | Humidity | Pressure | Rain* | Wind** | Luminosity | Snow |
|---|---|---|---|---|---|---|---|
| 1777721431 | 20.56° C | 36% | 1010.3 hPa | 0 mm | - | - | - |
| 1777720336 | - | - | - | - | - | - | - |
| 1777720332 | 20.56° C | 37% | 1010.5 hPa | 0 mm | - | - | - |
| 1777719264 | 20.56° C | 38% | 1010.5 hPa | 0 mm | - | - | - |
| 1777718259 | 20° C | 39% | 1010.6 hPa | 0 mm | - | - | - |
| 1777717138 | 20° C | 41% | 1010.7 hPa | 0 mm | - | - | - |
| 1777716119 | 20° C | 43% | 1010.9 hPa | 0 mm | - | - | - |
| 1777715024 | 19.44° C | 46% | 1010.9 hPa | 0 mm | - | - | - |
| 1777713839 | 18.89° C | 45% | 1011.2 hPa | 0 mm | - | - | - |
| 1777712732 | 18.33° C | 52% | 1011.3 hPa | 0 mm | - | - | - |
| 1777711659 | 17.78° C | 54% | 1011.4 hPa | 0 mm | - | - | - |
| 1777710630 | 17.22° C | 55% | 1011.5 hPa | 0 mm | - | - | - |
| 1777709532 | 16.67° C | 55% | 1011.9 hPa | 0 mm | - | - | - |
| 1777708429 | 16.11° C | 61% | 1012 hPa | 0 mm | - | - | - |
| 1777707464 | 15° C | 62% | 1012 hPa | 0 mm | - | - | - |
| 1777706322 | 15° C | 63% | 1012.1 hPa | 0 mm | - | - | - |
| 1777705222 | 13.89° C | 65% | 1012.2 hPa | 0 mm | - | - | - |
| 1777704138 | 13.33° C | 69% | 1012.4 hPa | 0 mm | - | - | - |
| 1777703164 | 11.67° C | 72% | 1012.6 hPa | 0 mm | - | - | - |
| 1777702072 | 10° C | 91% | 1012.8 hPa | 0 mm | - | - | - |
| 1777701032 | 8.33° C | 95% | 1012.8 hPa | 0 mm | - | - | - |
| 1777699974 | 6.67° C | 96% | 1012.7 hPa | 0 mm | - | - | - |
| 1777698969 | 5.56° C | 96% | 1012.9 hPa | 0 mm | - | - | - |
| 1777697919 | 5° C | 95% | 1013 hPa | 0 mm | - | - | - |
| 1777696784 | 3.89° C | 94% | 1013 hPa | 0 mm | - | - | - |
* Rain latest hour (hover to see other rain measurements)
** Current wind speed in m/s (hover to see current wind gust speed)